DW3201 Weather Reports


time (UTC)temp
F
wind
direction
speed
knots
gust
knots
rain 1hr
in
rain 24hr
in
rain mn
in
humidity
%
barometer
mb
20260509074553 55 257 4.3 9.6 0.00 0.00 0.00 76 1001.2
20260509073051 55 235 5.2 10.4 0.00 0.00 0.00 75 1001.3
20260509071551 56 240 4.3 10.4 0.00 0.00 0.00 73 1001.3
20260509070106 56 205 4.3 11.3 0.00 0.00 0.00 71 1001.4
20260509064553 56 273 4.3 9.6 0.00 0.00 0.00 69 1001.6
20260509063052 57 257 5.2 12.2 0.00 0.00 0.00 67 1001.8
20260509061607 57 251 5.2 11.3 0.00 0.00 0.00 65 1002.0
20260509060052 57 250 7.0 12.2 0.00 0.00 0.00 62 1002.4
20260509054616 57 240 6.1 13.0 0.00 0.00 0.00 60 1002.4
20260509053142 57 207 3.5 10.4 0.00 0.00 0.00 58 1002.6
20260509051555 58 253 4.3 8.7 0.00 0.00 0.00 57 1002.8
20260509050056 56 245 2.6 6.1 0.00 0.00 0.00 62 1003.0
20260509044553 54 245 1.7 2.6 0.00 0.00 0.00 70 1003.0
20260509043057 53 240 0.0 0.9 0.00 0.00 0.00 74 1002.8
20260509041554 53 68 0.0 0.9 0.00 0.00 0.00 73 1003.0
20260509040112 54 0 0.0 1.7 0.00 0.00 0.00 72 1003.1
20260509034619 54 0 0.9 3.5 0.00 0.00 0.00 70 1003.0
20260509033055 54 0 0.0 2.6 0.00 0.00 0.00 70 1003.0
20260509031553 54 0 0.0 1.7 0.00 0.00 0.00 68 1003.0
20260509030109 54 0 0.0 0.9 0.00 0.00 0.00 66 1003.3
20260509024552 55 0 0.0 0.9 0.00 0.00 0.00 64 1003.4
20260509023054 55 96 0.0 2.6 0.00 0.00 0.00 62 1003.5
20260509021556 56 0 0.0 1.7 0.00 0.00 0.00 60 1003.5
20260509020052 56 71 0.0 0.9 0.00 0.00 0.00 59 1003.5
20260509014551 57 0 0.0 1.7 0.00 0.00 0.00 56 1003.7
20260509013109 58 0 0.9 3.5 0.00 0.00 0.00 53 1003.7
20260509011608 60 103 0.9 4.3 0.00 0.00 0.00 51 1003.8
20260509010053 61 91 3.5 7.8 0.00 0.00 0.00 44 1003.8
20260509004554 65 0 0.0 1.7 0.00 0.00 0.00 28 1003.7
20260509003113 66 246 0.9 3.5 0.00 0.00 0.00 26 1003.7
20260509001552 66 260 1.7 4.3 0.00 0.00 0.00 27 1003.7
20260509000111 67 240 1.7 7.0 0.00 0.00 0.00 29 1003.8
20260508234553 67 243 0.9 4.3 0.00 0.00 0.00 29 1003.8
20260508233054 67 243 4.3 9.6 0.00 0.00 0.00 25 1004.0
20260508231555 68 284 1.7 6.1 0.00 0.00 0.00 27 1004.2
20260508230055 67 240 3.5 7.8 0.00 0.00 0.00 25 1004.3
20260508224604 67 258 5.2 9.6 0.00 0.00 0.00 24 1004.4
20260508223100 67 253 3.5 7.8 0.00 0.00 0.00 26 1004.4
20260508221601 67 298 4.3 12.2 0.00 0.00 0.00 24 1004.6
20260508220059 67 276 2.6 8.7 0.00 0.00 0.00 25 1004.7
20260508214600 67 290 1.7 7.8 0.00 0.00 0.00 26 1004.7
20260508213113 67 0 4.3 7.8 0.00 0.00 0.00 23 1004.8
20260508211600 67 271 2.6 6.1 0.00 0.00 0.00 24 1004.9
20260508210057 66 249 5.2 11.3 0.00 0.00 0.00 23 1005.1
20260508204603 67 262 7.8 15.6 0.00 0.00 0.00 22 1005.4
20260508203101 67 245 4.3 7.8 0.00 0.00 0.00 24 1005.6
20260508201613 67 225 7.0 10.4 0.00 0.00 0.00 21 1005.7
20260508200109 67 271 1.7 10.4 0.00 0.00 0.00 20 1005.9
20260508194600 67 16 2.6 5.2 0.00 0.00 0.00 23 1006.1
20260508193106 66 221 1.7 11.3 0.00 0.00 0.00 22 1006.4
20260508191555 67 214 1.7 7.0 0.00 0.00 0.00 23 1006.5
20260508190057 65 233 2.6 6.1 0.00 0.00 0.00 24 1006.8
20260508184604 67 219 0.9 4.3 0.00 0.00 0.00 26 1006.9
20260508183105 66 72 2.6 8.7 0.00 0.00 0.00 21 1007.1
20260508181554 67 233 0.0 5.2 0.00 0.00 0.00 25 1007.3
20260508180059 66 89 0.0 3.5 0.00 0.00 0.00 23 1007.4
20260508174605 65 271 0.9 7.0 0.00 0.00 0.00 28 1007.6
20260508173054 64 63 2.6 6.1 0.00 0.00 0.00 23 1007.9
20260508171558 64 235 3.5 7.0 0.00 0.00 0.00 22 1008.2
20260508170056 63 228 2.6 5.2 0.00 0.00 0.00 24 1008.5
20260508164558 64 263 0.0 2.6 0.00 0.00 0.00 26 1008.7
20260508163114 62 251 2.6 6.1 0.00 0.00 0.00 26 1008.9
20260508161556 62 231 1.7 5.2 0.00 0.00 0.00 25 1009.1
20260508160052 62 242 1.7 3.5 0.00 0.00 0.00 25 1009.1
20260508154558 61 248 0.9 6.1 0.00 0.00 0.00 27 1009.5
20260508153057 61 162 0.9 5.2 0.00 0.00 0.00 28 1009.4
20260508151554 62 167 0.0 2.6 0.00 0.00 0.00 29 1009.4
20260508150052 59 118 1.7 4.3 0.00 0.00 0.00 32 1009.5
20260508144551 59 249 0.0 2.6 0.00 0.00 0.00 33 1009.6
20260508143054 58 266 0.9 3.5 0.00 0.00 0.00 41 1009.4
20260508141555 56 99 0.9 5.2 0.00 0.00 0.00 51 1009.6
20260508140054 54 88 0.0 2.6 0.00 0.00 0.00 58 1009.7
20260508134551 52 69 0.9 1.7 0.00 0.00 0.00 65 1009.7
20260508133059 50 96 0.0 1.7 0.00 0.00 0.00 74 1010.1
20260508131556 48 243 0.0 1.7 0.00 0.00 0.00 79 1010.1
20260508130107 44 0 0.0 1.7 0.00 0.00 0.00 94 1010.2
20260508124554 41 0 0.0 0.9 0.00 0.00 0.00 95 1010.2
20260508123056 38 0 0.0 0.0 0.00 0.00 0.00 95 1010.2
20260508121551 36 0 0.0 0.0 0.00 0.00 0.00 94 1010.2
20260508120056 34 0 0.0 0.0 0.00 0.00 0.00 94 1010.1
20260508114551 33 0 0.0 0.0 0.00 0.00 0.00 94 1010.0
20260508113107 33 0 0.0 0.0 0.00 0.00 0.00 94 1010.1
20260508111553 32 0 0.0 0.0 0.00 0.00 0.00 94 1010.0
20260508110118 32 0 0.0 0.0 0.00 0.00 0.00 94 1010.0
20260508104557 31 0 0.0 0.0 0.00 0.00 0.00 93 1010.0
20260508103057 32 0 0.0 0.0 0.00 0.00 0.00 94 1010.0
20260508101556 31 0 0.0 0.0 0.00 0.00 0.00 93 1010.0
20260508100055 32 0 0.0 0.0 0.00 0.00 0.00 93 1010.0
20260508094600 31 0 0.0 0.0 0.00 0.00 0.00 93 1010.2
20260508093102 32 0 0.0 0.0 0.00 0.00 0.00 93 1010.2
20260508091557 32 0 0.0 0.0 0.00 0.00 0.00 92 1010.3
20260508090108 33 0 0.0 0.0 0.00 0.00 0.00 93 1010.4
20260508084552 33 0 0.0 0.9 0.00 0.00 0.00 93 1010.5
20260508083055 33 277 0.0 0.0 0.00 0.00 0.00 92 1010.5
20260508081559 33 0 0.0 0.0 0.00 0.00 0.00 92 1010.4
20260508080054 33 0 0.0 0.0 0.00 0.00 0.00 91 1010.5